Belmar-Farmingdale, NJ

3:00 PM EST on November 22, 2019 (GMT -0500)
Allaire

Weather History for KBLM - September, 2019

Change the Weather History Date:

Saturday, September 14, 2019

  Actual Average Record
Temperature  
Mean Temperature 68 °F -  
Max Temperature 75 °F 73 °F 90 °F (2016)
Min Temperature 60 °F 58 °F 48 °F (2013)
Cooling Degree Days 2    
Growing Degree Days 18 (Base 50)    
Moisture  
Dew Point 63 °F    
Average Humidity 76    
Maximum Humidity 90    
Minimum Humidity 64    
Precipitation  
Precipitation 0.00 in - - ()
Sea Level Pressure  
Sea Level Pressure 30.26 in    
Wind  
Wind Speed 6 mph ()    
Max Wind Speed 14 mph    
Max Gust Speed 20 mph    
Visibility 10.0 miles    
Events Rain    
Averages and records for this station are not official NWS values.
T = Trace of Precipitation, MM = Missing Value Source: Averaged Metar Reports

Daily Weather History Graph

Daily Weather History Graph

Search for Another Location

Airport or City:

Astronomy

Sep. 14, 2019 Rise Set
Actual Time 6:36 AM EDT 7:07 PM EDT
Civil Twilight 6:08 AM EDT 7:34 PM EDT
Nautical Twilight 5:36 AM EDT 8:06 PM EDT
Astronomical Twilight 5:03 AM EDT 8:39 PM EDT
Moon 7:47 PM EDT (9/14) 6:47 AM EDT (9/14)
Length of Visible Light 13h 25m
Length of Day
12h 31m
Full, 100% of the Moon is Illuminated
Sep 14
Full
Sep 21
Last Quarter
Sep 28
New
Oct 5
First Quarter
Oct 13
Full

Hourly Weather History & Observations

Time (EDT) Temp. Dew Point Humidity Pressure Visibility Wind Dir Wind Speed Gust Speed Precip Events Conditions
12:56 AM 62.1 °F 55.0 °F 78% 30.40 in 10.0 mi ESE 4.6 mph - N/A   Overcast
1:56 AM 63.0 °F 55.9 °F 78% 30.39 in 10.0 mi ESE 6.9 mph - N/A   Clear
2:56 AM 63.0 °F 54.0 °F 72% 30.36 in 10.0 mi ESE 5.8 mph - N/A   Clear
3:56 AM 61.0 °F 55.0 °F 81% 30.35 in 10.0 mi ESE 5.8 mph - N/A   Mostly Cloudy
4:56 AM 62.1 °F 55.9 °F 80% 30.34 in 10.0 mi ESE 5.8 mph - N/A   Clear
5:56 AM 61.0 °F 55.9 °F 83% 30.35 in 10.0 mi SE 3.5 mph - N/A   Clear
6:56 AM 60.1 °F 55.9 °F 86% 30.34 in 10.0 mi Calm Calm - N/A   Clear
7:56 AM 66.9 °F 59.0 °F 76% 30.34 in 10.0 mi SE 3.5 mph - N/A   Clear
8:56 AM 71.1 °F 60.1 °F 68% 30.34 in 10.0 mi SSE 10.4 mph - N/A   Clear
9:56 AM 72.0 °F 61.0 °F 68% 30.33 in 10.0 mi South 10.4 mph 18.4 mph N/A   Partly Cloudy
10:56 AM 73.9 °F 61.0 °F 64% 30.32 in 10.0 mi South 13.8 mph 19.6 mph N/A   Mostly Cloudy
11:56 AM 72.0 °F 63.0 °F 73% 30.32 in 10.0 mi South 10.4 mph - N/A   Mostly Cloudy
12:56 PM 73.9 °F 64.0 °F 71% 30.29 in 10.0 mi South 11.5 mph 17.3 mph N/A   Overcast
1:06 PM 73.4 °F 64.4 °F 73% 30.28 in 10.0 mi SSE 8.1 mph 18.4 mph N/A   Overcast
1:56 PM 73.0 °F 64.9 °F 76% 30.26 in 10.0 mi SSE 10.4 mph 17.3 mph N/A   Overcast
2:56 PM 73.9 °F 66.0 °F 76% 30.24 in 10.0 mi SSE 9.2 mph 17.3 mph N/A   Overcast
3:39 PM 75.2 °F 66.2 °F 73% 30.21 in 10.0 mi South 8.1 mph - N/A   Overcast
3:56 PM 75.0 °F 66.0 °F 73% 30.21 in 10.0 mi South 6.9 mph - N/A   Overcast
4:05 PM 75.2 °F 66.2 °F 73% 30.21 in 10.0 mi SSE 8.1 mph - N/A   Overcast
4:18 PM 75.2 °F 66.2 °F 73% 30.21 in 10.0 mi Variable 5.8 mph - N/A   Overcast
4:56 PM 75.0 °F 66.9 °F 76% 30.20 in 10.0 mi South 8.1 mph - N/A   Overcast
5:12 PM 75.2 °F 66.2 °F 73% 30.20 in 10.0 mi SSE 8.1 mph - N/A   Overcast
5:22 PM 75.2 °F 66.2 °F 73% 30.20 in 10.0 mi South 6.9 mph - N/A   Overcast
5:47 PM 75.2 °F 66.2 °F 73% 30.19 in 10.0 mi SSE 5.8 mph - N/A   Overcast
5:56 PM 75.0 °F 66.9 °F 76% 30.19 in 10.0 mi South 11.5 mph 16.1 mph N/A   Overcast
6:26 PM 75.2 °F 66.2 °F 73% 30.20 in 10.0 mi South 6.9 mph 16.1 mph N/A   Overcast
6:56 PM 73.9 °F 66.0 °F 76% 30.19 in 10.0 mi SSW 6.9 mph - N/A   Overcast
7:56 PM 73.0 °F 66.9 °F 81% 30.20 in 10.0 mi South 5.8 mph - N/A   Mostly Cloudy
8:56 PM 72.0 °F 66.9 °F 84% 30.21 in 10.0 mi SSW 6.9 mph - N/A   Partly Cloudy
9:56 PM 72.0 °F 66.9 °F 84% 30.21 in 10.0 mi South 5.8 mph - 0.00 in Rain Light Rain
10:56 PM 71.1 °F 68.0 °F 90% 30.20 in 10.0 mi SSW 6.9 mph - 0.00 in Rain Light Rain
11:56 PM 71.1 °F 68.0 °F 90% 30.19 in 10.0 mi SSW 4.6 mph - 0.00 in   Overcast